Theta_e
312 311 317 322 324 327 331 332 332 334 338 345 341 345 347 352 356 360 357 358 358 353 350 345 346 345 342 342 343 343 333 332 328 324 324 323 323 324 324 326 328 331 329 323 322 322 322 323 325
313 321 319 321 323 326 330 332 332 333 335 340 343 345 345 353 351 349 341 359 360 351 351 343 339 336 334 339 343 343 334 334 331 326 325 325 324 325 326 330 332 327 324 323 323 323 323 326 330
317 324 320 320 322 323 327 331 333 333 336 340 340 340 344 351 354 347 353 360 360 351 350 341 336 334 333 337 343 342 335 335 334 328 325 325 325 324 326 329 324 322 323 324 325 326 327 329 333
319 320 319 319 320 322 323 328 332 333 334 338 338 342 352 352 354 358 357 360 358 354 348 340 334 332 332 337 343 340 335 336 335 328 325 324 323 323 323 322 323 323 325 327 328 329 329 329 330
323 320 319 319 319 321 324 325 327 331 333 336 336 340 352 354 354 356 358 359 355 352 345 337 333 331 332 338 342 337 336 337 334 326 324 324 323 324 323 323 324 326 328 330 330 330 330 329 329
323 322 320 320 321 322 323 324 326 328 331 334 336 338 354 357 355 356 358 357 352 350 343 336 331 329 333 337 339 337 337 336 330 325 325 324 324 326 326 326 327 329 329 328 327 325 324 323 322
324 324 322 321 322 322 323 323 325 326 331 333 334 338 354 356 355 356 358 354 349 350 341 333 329 328 332 334 335 335 334 332 327 324 324 324 324 324 325 326 326 326 325 324 322 321 321 322 322
320 324 323 322 323 323 325 324 324 325 327 332 332 336 352 353 356 356 355 352 350 350 340 332 328 326 327 330 331 330 330 328 323 323 324 325 323 323 322 322 322 322 321 321 322 322 322 325 333
319 322 324 323 322 323 324 325 325 324 325 330 332 346 349 356 356 356 354 352 351 347 343 336 328 326 323 324 326 326 325 323 323 324 325 324 324 323 324 323 322 322 322 322 330 331 338 344 344
319 321 322 323 323 323 324 325 325 325 325 326 328 350 350 351 353 354 354 352 351 348 344 341 337 327 326 322 321 321 322 322 323 325 327 341 341 339 342 332 327 328 327 331 343 339 342 346 344
317 320 320 321 321 322 323 324 324 325 324 324 326 348 348 350 353 354 354 353 351 349 344 342 340 338 337 330 320 321 322 323 330 326 336 343 342 335 332 339 339 337 338 346 341 344 344 344 345
317 318 319 319 320 320 322 323 324 324 324 324 325 344 346 347 352 353 353 353 352 349 345 343 341 339 338 332 326 326 328 335 341 340 336 344 337 341 341 340 342 336 342 343 344 343 344 347 343
317 317 318 319 319 320 320 322 323 322 322 322 324 327 347 348 348 352 353 353 352 350 345 345 343 341 341 336 340 337 340 341 342 342 327 336 334 339 337 337 336 336 337 342 343 346 348 346 348
316 316 316 316 318 320 321 322 321 321 321 322 326 326 339 349 347 350 355 354 352 350 346 346 344 343 344 340 342 341 342 342 343 342 335 343 339 340 336 337 329 335 336 341 343 351 349 345 346
315 315 316 317 317 320 321 321 321 321 321 322 325 325 330 343 347 348 353 354 352 350 348 348 347 346 347 346 343 344 343 345 344 345 346 341 338 340 336 335 338 337 339 345 350 348 348 342 343
317 317 315 315 317 317 320 322 321 320 321 321 322 325 324 338 347 348 350 355 353 351 350 349 349 348 348 349 346 345 345 346 346 346 347 343 338 340 325 344 346 349 344 347 350 339 333 336 334
318 318 318 316 316 317 318 321 321 321 321 322 322 323 324 328 341 349 351 355 354 353 351 351 351 350 350 350 347 348 345 347 347 346 343 340 337 336 343 350 349 345 347 346 341 337 335 341 343
318 320 319 317 317 316 318 319 321 321 322 323 323 322 324 325 334 348 353 354 354 354 352 352 352 349 348 349 347 348 345 347 345 342 342 344 346 347 347 350 349 347 345 344 339 334 337 338 341
319 321 321 320 319 317 318 319 320 323 323 324 323 323 324 324 339 352 355 354 355 354 353 352 351 348 350 349 349 350 346 343 341 344 350 347 351 349 348 348 347 343 343 340 334 336 340 341 338
318 319 321 319 319 319 319 318 320 323 325 325 323 323 323 324 341 357 354 355 355 353 353 350 351 349 351 348 348 347 340 340 347 345 347 348 349 348 347 347 345 341 338 338 334 336 338 333 329
314 316 317 317 319 319 320 318 320 320 324 324 324 322 323 324 354 354 355 353 352 352 350 352 350 348 349 347 347 339 339 346 345 346 347 348 346 343 341 336 333 334 337 336 334 332 326 324 320
312 315 316 317 319 321 319 320 320 321 323 325 325 324 323 323 350 350 352 353 352 352 350 349 346 348 347 344 341 341 341 345 347 347 345 344 340 334 334 336 337 336 333 329 325 319 317 316 317
313 314 316 316 316 316 317 318 319 321 322 325 326 325 323 324 331 351 350 351 351 351 347 348 346 347 345 345 343 345 347 346 348 347 345 337 334 335 336 334 330 327 325 320 314 312 309 309 317
314 313 314 315 315 316 316 319 319 322 323 324 326 325 324 325 330 350 350 350 348 349 349 347 345 343 342 350 348 349 347 347 347 346 341 334 335 335 333 329 326 323 315 312 309 308 309 309 313
314 313 315 315 316 316 317 318 321 322 324 324 326 325 324 325 334 351 350 350 350 349 349 347 344 349 345 348 347 346 348 347 345 340 335 332 333 333 328 325 320 313 309 308 309 310 309 312 314
315 314 317 321 320 318 317 318 322 324 325 323 324 326 324 324 351 350 347 348 348 341 345 346 346 346 348 349 348 348 348 346 337 336 333 331 331 328 325 317 311 308 307 310 310 311 314 315 314
315 318 316 318 317 320 321 319 319 322 324 325 326 326 325 324 350 344 340 344 334 334 346 346 345 345 347 350 349 347 342 337 337 336 332 330 327 324 315 310 307 307 309 312 311 313 316 319 321
315 316 319 316 319 321 319 319 319 321 323 326 326 328 326 325 351 350 340 339 333 345 348 349 349 350 349 347 345 339 336 335 334 333 329 325 322 313 309 307 307 309 309 317 320 316 317 316 317
316 316 316 316 317 318 317 319 323 324 323 325 326 327 326 325 348 351 351 346 343 346 349 348 348 348 345 342 339 337 335 333 331 327 326 321 313 309 308 310 311 309 309 313 317 319 319 317 315
315 316 315 318 316 316 317 319 319 323 323 325 325 328 326 326 350 350 350 347 347 347 348 349 349 344 341 339 335 333 332 329 327 325 318 312 308 310 313 315 317 315 314 317 318 319 317 316 316
Wind_Speed
8 5 5 9 7 8 18 22 22 26 18 30 35 16 7 18 16 4 7 10 20 21 27 27 25 23 20 19 19 17 15 14 14 14 14 14 13 12 11 9 7 7 6 5 4 4 2 2 2
11 8 11 11 9 15 16 22 25 23 23 13 10 4 1 19 24 20 17 14 18 21 27 27 25 22 20 19 19 17 16 14 13 13 13 13 11 10 9 7 6 5 5 4 3 2 2 2 2
9 6 14 6 15 18 18 24 21 25 14 11 5 4 5 9 19 22 23 24 20 22 27 26 25 22 20 19 20 18 16 14 12 11 11 11 10 9 8 7 5 5 4 4 3 2 2 3 4
6 8 12 14 21 25 27 24 27 18 18 14 7 4 12 13 15 16 26 22 18 23 25 25 24 21 20 20 20 18 16 13 11 10 10 10 9 9 8 7 6 5 5 3 2 2 3 5 7
14 14 11 17 25 26 22 30 37 27 22 17 11 6 15 17 17 21 28 26 26 24 25 25 22 21 20 20 19 17 16 13 10 10 10 9 9 9 8 7 5 5 3 1 2 4 7 9 10
16 21 15 18 23 25 25 32 30 27 30 12 18 13 15 18 22 23 23 22 27 24 23 26 23 21 21 20 19 17 15 12 11 11 10 9 9 8 8 6 4 2 1 3 5 8 9 11 12
17 14 20 23 21 25 23 31 24 21 23 21 17 17 20 19 22 24 23 25 25 21 24 27 24 22 21 20 19 18 15 12 11 11 9 8 8 7 6 4 2 2 4 5 7 9 11 12 13
24 15 25 23 21 27 22 30 32 32 19 21 16 8 19 25 25 25 23 27 26 19 25 27 25 23 22 21 19 18 15 13 13 11 10 9 7 6 5 4 2 2 4 5 7 9 11 13 14
23 16 18 26 25 20 27 24 29 30 23 19 21 24 27 26 24 24 25 27 25 23 22 24 25 24 23 22 21 18 17 15 13 12 10 7 6 4 2 1 1 2 4 5 8 10 12 10 11
18 16 25 23 23 23 25 27 32 22 17 23 28 24 24 23 23 26 28 29 26 24 25 23 23 23 21 23 22 20 18 16 14 12 11 10 5 2 1 4 5 5 6 4 8 8 11 8 11
22 21 22 23 31 33 30 26 34 19 18 27 29 25 22 22 23 25 26 28 26 25 25 22 21 23 19 21 23 21 19 16 13 12 14 10 11 8 7 1 3 6 4 3 9 7 9 10 9
19 25 29 27 32 31 25 29 30 31 18 28 33 29 27 25 25 27 27 31 29 29 28 27 26 27 22 19 20 18 16 14 11 11 14 11 12 8 6 7 3 6 5 5 6 5 7 8 11
19 19 25 28 32 30 32 24 29 27 20 27 26 27 32 26 25 26 28 32 32 33 33 30 27 27 25 17 22 17 15 13 12 14 13 10 11 10 10 9 13 9 10 5 9 5 8 8 9
22 20 19 21 28 29 26 23 28 23 19 29 11 8 29 28 26 24 30 33 37 34 36 34 31 29 23 21 21 19 21 15 18 11 10 12 11 12 9 12 6 4 9 10 7 10 11 11 12
21 18 16 21 23 22 24 24 25 27 27 24 14 11 17 30 29 26 28 37 38 38 37 34 30 31 24 20 25 23 19 17 12 9 13 10 12 13 12 6 9 6 11 4 6 7 10 9 11
20 15 16 20 19 23 28 26 24 28 29 30 26 19 21 20 24 29 28 31 42 38 36 32 29 31 29 23 28 24 20 11 14 14 14 13 12 9 10 7 4 11 6 5 6 8 12 12 16
16 16 20 21 18 20 27 28 27 31 31 30 28 19 23 17 26 31 36 39 42 41 37 31 30 35 31 25 24 19 19 17 16 10 6 7 8 8 10 7 10 6 2 5 10 13 15 15 14
13 14 18 20 17 21 27 28 25 33 34 32 33 29 23 23 26 27 47 45 38 39 38 34 32 30 31 24 24 19 19 14 13 11 10 8 8 8 10 8 9 4 5 12 12 15 10 10 14
21 14 21 20 23 22 26 26 27 27 30 29 34 31 28 27 21 25 27 41 40 39 37 36 31 29 31 27 26 23 22 15 13 14 11 10 12 12 6 3 8 8 9 13 13 12 8 6 13
15 11 24 20 11 14 19 27 29 26 25 31 33 26 27 27 26 22 25 32 33 34 32 35 34 32 31 31 29 24 22 18 17 16 14 12 11 9 10 9 9 10 7 13 8 7 4 3 12
16 18 17 17 14 19 25 21 24 28 29 27 39 34 34 30 28 21 30 32 32 31 34 35 31 33 30 30 25 21 21 23 14 13 15 15 12 10 8 8 9 6 5 9 1 3 5 6 10
14 17 20 17 4 7 16 12 20 24 22 21 22 27 33 31 33 32 22 31 36 35 35 29 28 35 30 31 26 25 29 23 18 17 14 10 6 3 3 1 2 2 2 3 4 5 7 5 8
14 12 17 17 13 15 18 15 18 21 26 24 22 26 33 39 36 37 32 33 36 33 29 28 31 33 29 26 27 27 20 18 18 17 14 6 6 5 5 4 3 1 4 5 5 6 5 7 8
10 10 20 12 13 14 21 18 19 20 26 24 23 31 36 34 36 36 40 37 34 33 31 30 33 33 33 25 25 23 20 20 21 18 11 9 9 8 8 5 3 3 4 5 7 9 9 10 9
12 7 9 10 11 14 23 20 18 26 31 27 25 32 29 33 35 43 42 41 41 36 33 32 37 31 35 25 23 22 20 22 17 12 12 10 9 10 7 4 4 6 7 8 8 9 10 12 11
14 14 10 8 5 11 22 20 18 13 30 37 39 35 34 33 47 52 51 52 50 43 27 32 37 33 33 25 24 25 24 20 17 15 16 16 10 8 7 7 6 7 8 8 9 10 13 13 14
13 17 4 4 18 16 13 22 19 13 13 26 27 36 38 40 47 49 51 47 49 48 44 39 36 32 30 31 27 22 21 24 25 22 20 13 9 8 8 6 6 7 8 11 11 11 13 14 10
16 2 8 8 5 8 10 17 12 14 14 18 26 30 39 42 47 49 60 60 54 52 45 41 40 38 33 29 28 30 29 23 22 22 17 13 12 8 7 7 7 8 9 13 10 11 13 11 10
10 15 13 14 12 13 9 8 10 15 10 9 24 34 38 42 41 53 54 49 75 58 50 48 38 35 30 30 33 30 26 23 20 18 15 13 10 8 8 9 9 9 11 14 15 13 12 12 12
15 15 14 9 16 13 11 13 15 7 15 11 14 33 39 37 42 50 40 39 48 45 43 42 38 38 34 32 30 28 24 21 19 16 14 11 9 10 11 11 10 9 12 14 13 11 10 10 9
Wind_Direction
239 220 227 263 238 229 247 248 246 270 282 138 138 156 219 110 129 220 84 92 148 162 157 153 150 148 151 155 160 157 149 141 136 134 132 134 137 134 135 131 124 113 110 104 97 91 90 80 83
203 231 238 265 234 236 239 239 253 247 266 85 93 179 329 82 116 158 199 135 159 163 161 155 151 149 149 157 164 161 155 148 144 140 135 136 141 141 142 141 135 126 120 111 99 93 62 26 353
201 202 229 224 236 237 242 246 228 255 223 138 134 225 248 100 127 145 142 157 169 160 165 158 151 149 150 159 166 165 159 154 151 143 136 137 142 142 143 147 149 134 117 102 92 60 23 338 328
226 234 237 246 240 225 245 257 264 229 251 141 181 178 92 123 127 139 141 154 147 152 165 158 151 150 152 159 166 167 163 161 156 147 142 137 141 141 142 149 147 130 121 111 68 356 325 322 323
226 240 229 234 241 250 239 241 260 276 271 156 175 227 114 119 129 135 143 153 145 151 159 156 153 151 155 158 166 170 169 168 160 152 145 139 139 137 141 144 139 133 130 101 332 323 323 323 324
225 230 240 234 243 238 248 256 248 257 272 189 169 212 120 127 128 140 146 144 141 167 160 155 155 155 158 162 169 174 176 173 165 157 150 144 140 141 143 145 147 160 263 302 322 319 321 325 331
243 225 236 247 248 238 242 244 260 261 254 244 207 181 137 142 137 141 148 142 146 174 167 158 157 160 162 167 173 176 180 176 168 159 155 150 149 153 154 163 191 258 294 318 321 326 332 338 342
233 251 251 241 252 257 247 237 240 258 265 230 256 184 147 151 140 144 147 146 150 163 166 161 161 162 164 170 175 177 178 174 168 163 158 158 159 157 165 186 201 285 320 330 338 342 346 356 358
236 245 245 248 250 252 263 267 228 239 248 248 258 78 127 128 144 149 150 151 150 150 161 162 163 165 166 171 173 174 173 170 169 163 158 156 151 167 169 182 35 358 342 1 6 0 15 16 13
233 238 241 254 259 266 265 264 268 215 206 240 254 115 125 140 153 161 160 159 160 160 162 168 164 162 167 170 168 169 170 170 168 164 138 119 85 122 316 24 18 0 10 9 350 8 10 5 349
236 245 255 249 258 272 276 270 267 254 202 224 238 139 142 153 160 169 171 167 167 165 161 163 164 152 162 170 166 169 169 164 159 157 145 134 188 211 212 355 335 357 32 9 332 349 335 339 326
248 244 247 259 271 276 277 279 281 272 209 224 237 163 160 166 172 178 180 170 167 166 168 168 169 164 173 172 161 165 161 155 162 173 168 182 193 217 193 232 215 341 294 284 310 308 308 310 314
258 249 261 253 255 268 271 281 278 287 210 242 234 232 163 163 176 187 178 169 168 168 169 173 172 166 181 175 165 154 157 161 182 202 193 193 176 226 202 212 221 225 230 283 275 305 289 290 306
281 280 269 260 263 250 263 269 272 267 274 225 198 237 176 164 178 193 165 173 170 168 171 174 171 169 183 161 169 165 170 169 187 208 193 179 187 230 218 233 234 243 249 244 264 284 280 297 311
267 274 271 267 254 255 254 254 263 246 259 267 195 197 223 168 176 187 176 169 171 166 164 174 174 170 173 171 172 172 170 181 181 185 218 207 193 229 196 212 225 241 255 281 292 310 316 323 298
277 267 253 249 232 243 252 241 242 244 254 260 230 190 232 226 175 181 182 166 169 167 172 177 175 175 176 182 173 172 167 178 167 209 226 226 206 235 206 208 192 234 271 306 306 316 330 328 326
255 252 248 244 243 238 232 239 240 231 239 249 250 210 214 205 204 196 179 170 171 171 172 171 178 183 178 186 178 165 175 171 186 190 239 228 218 225 178 218 242 265 320 315 291 311 324 334 331
260 308 269 253 244 224 232 234 235 236 223 234 243 222 205 206 218 201 169 166 173 174 178 174 181 185 182 183 163 176 179 175 189 181 207 236 194 219 210 213 245 231 212 258 290 328 338 341 319
298 279 280 286 270 236 228 225 234 235 237 216 232 213 199 192 205 181 163 155 164 171 176 184 189 184 174 173 173 185 185 181 171 172 196 199 197 206 222 205 262 263 264 285 313 334 359 1 321
289 276 274 254 277 308 271 221 220 224 235 218 219 212 200 207 194 162 153 163 173 173 183 181 188 181 174 180 173 186 169 176 184 194 197 203 199 201 215 219 256 287 308 296 316 342 100 19 342
275 271 272 289 6 316 293 247 208 221 229 236 200 212 211 199 171 175 159 172 179 177 180 183 190 184 176 173 171 164 183 179 181 189 193 205 216 226 249 266 276 290 223 288 3 19 49 71 28
266 279 285 268 285 263 278 239 240 208 223 229 228 207 192 207 170 179 181 169 169 172 177 184 180 169 173 167 177 182 189 187 180 198 210 220 218 212 223 207 111 82 81 48 61 53 53 68 56
261 283 292 282 262 262 257 260 237 211 214 213 221 210 204 200 182 165 179 184 173 166 171 181 178 171 170 169 183 185 178 186 186 196 206 195 178 167 144 128 120 65 67 61 55 60 39 71 75
249 283 284 254 264 252 257 234 227 206 208 214 204 222 202 186 177 167 164 173 167 164 170 180 175 163 170 174 185 188 181 183 178 189 197 171 163 156 150 149 129 109 77 61 46 51 60 76 84
234 238 265 230 225 238 244 244 248 210 199 202 205 207 205 189 178 157 161 163 162 163 172 179 170 175 177 180 175 175 180 182 184 173 170 150 154 160 144 129 103 83 69 65 64 73 81 80 83
268 224 242 263 234 273 239 224 237 219 188 199 196 202 197 207 162 167 171 167 166 164 170 180 175 177 169 175 171 176 173 184 144 157 136 163 177 149 134 111 84 66 72 82 80 86 81 81 71
224 243 200 217 272 267 268 218 234 227 232 188 190 194 193 206 166 164 162 172 174 166 184 177 177 176 173 171 168 164 162 153 163 160 170 171 145 135 114 93 80 83 96 85 81 90 92 85 59
253 284 244 208 261 234 241 209 204 205 211 185 188 186 184 205 168 163 170 174 169 167 176 175 176 169 166 166 166 163 159 159 162 169 167 148 141 126 100 91 94 102 109 109 88 81 82 89 85
224 226 235 265 279 295 322 234 188 171 220 216 183 183 176 203 166 166 171 168 169 172 168 168 167 165 163 158 164 159 161 160 155 156 149 138 127 111 104 96 93 98 105 108 89 77 75 71 68
205 262 243 252 277 270 287 279 304 314 195 231 212 175 177 204 161 173 161 155 149 155 155 151 154 151 158 164 155 154 152 152 151 145 138 136 129 118 111 108 105 102 106 104 113 105 90 82 70